map of VNO home
VNO - Airport
Location
City:  Vilnius, Lithuania
Name:Vilnius International Airport
ICAO:EYVI
IATA:VNO

Details
Type:Airport (Aerodrome, Airfield)
Use:Public/Civil, International (customs port of entry)
Latitude:5438'13"N (54.636944)
Longitude:2517'16"E (25.287778)
Elevation:648 ft (198 m)
Variation:7.55E (WMM2015 magnetic declination)
0.13 annual change
Runways:1
Longest:8251 × 164 ft (2515 × 50 m), paved

Time
Time Zone:UTC+2 (DST+3)
Local Time:

Weather
METAR:EYVI 221050Z 35008KT 310V030 9999 SCT036 25/15 Q1010 NOSIG
TAF:EYVI 220504Z 2206/2306 VRB05KT 9000 FEW030
TEMPO 2209/2218 35015KT SCT030CB
TEMPO 2300/2304 3000 MIFG BR SCT003

Related Locations
Nearby:
Farthest:CHT: 11208 mi / 18037 km
Waitangi [Tuuta], CIT, NZ

Find:

   beyond  
but within

Other Information
Maps:
NOTAMs:
Links:
Sources:

  
  • flag of Lithuania
  • flag of Vilnius
  

Airport Diagram

Airport diagram for VNO

Airport diagram PDF

Sectional Chart

Flight Planning
at skyvector.com

Satellite Image

Google Maps Satellite view

 

Copyright © 2004-2018 Karl L. Swartz. All rights reserved.
The Great Circle Mapper name and logo are trademarks of the Great Circle Mapper.
All other trademarks mentioned herein belong to their respective owners.
Please see credits for attibutions and further copyright information.

  Follow gcmap on Facebook Follow gcmap on Twitter Follow gcmap on Google+ GCmap on LinkedIn

hCard Microformat

Geo Microformat